Find Starlink 33597

NORAD ID: 62763 Int'l Des: 2025-015 Owner: SPXS Country: US Constellation: starlink operational
LEOCIRCULAR

当前视图

正在加载3D地球...

About Starlink 33597

Starlink 33597 (NORAD 62763) is a starlink constellation satellite (v2 mini) launched Jan 21, 2025 by SPXS of US. It operates in LEO, CIRCULAR orbit with a mass of 575.00 kg.

即将过境

Passes for default location (London). Set your location on the main map for personalized predictions.

高度历史

Loading altitude history...

两行轨道根数

1 62763U 25015F 26265.32144028 .00005317 00000-0 18297-3 0 9998
2 62763 53.1573 127.8971 0001220 97.2406 262.8734 15.31703079 94605
Epoch: Sep 22, 2026 • Age: 24 hours

当前状态

高度 470.5 km
远地点 / 近地点 N/A
速度 7.63 km/s
星下点 14.58°N, 171.23°E
发射日期 Jan 21, 2025
运行时间 1.6 years
类型 internet

技术详情

分类 Payload
质量 575.00 kg
干质量 530.00 kg
长度 0.30 m
跨度 29.00 m
形状 ? Box + pan
制造商 SPXS
平台类型 Starlink V2MO
阶段状态 In Orbit
所有者/国家 SPXS/US

Most Searched